User: anonymous   Login
Location: Unspecified
(0.0000°N, 0.0000°E)
Time: 19:45:35
(UTC+00:00)
Language:

FIREBIRD 3 - Orbit

View from above orbital plane
View from above orbital plane
View from above satellite
View from above satellite

Ground track
Ground track

The orbit data is extracted from the following two-line orbital elements,

1 40377U 15003B   18350.89042651 +.00002605 +00000-0 +10771-3 0  9994
2 40377 099.0900 288.9091 0129073 343.1455 016.5504 15.17980009214024
Epoch (UTC): 16 December 2018 21:22:12
Eccentricity: 0.0129073
inclination: 99.0900°
perigee height: 423 km
apogee height: 601 km
right ascension of ascending node: 288.9091°
argument of perigee: 343.1455°
revolutions per day: 15.17980009
mean anomaly at epoch: 16.5504°
orbit number at epoch: 21402

The dashed part of the orbit path shows where the satellite is in the earth's shadow,  

DLR